Location: Beuvrequen
(50.8014°N, 1.6652°E)
Time: 04:06:40
(UTC+00:00)

Lacrosse 4 Rocket - Pass Details

Date: 16 October 2021
Orbit: 537 x 619 km, 68.0° (Epoch: 05 December)

Event Time Altitude Azimuth Distance (km) Brightness Sun altitude
Rises 18:29:16 0° 329° (NNW) 2,776 5.4 -15.1°
Reaches altitude 10° 18:31:50 10° 344° (NNW) 1,891 4.3 -15.5°
Maximum altitude 18:35:16 23° 38° (NE) 1,254 2.8 -16.0°
Enters shadow 18:36:01 22° 54° (NE) 1,295 2.8 -16.1°
